TAM3642 SBSP-SBVT

Flight info

Callsign TAM3642
Flight time 1h 11m
Altitude 35000
Route UREMI UZ42 CXI DCT SEGLI DCT TODET
Aircraft A319/M-SDE3FGHIRWY/LB1

Departure

Time 2026-04-20 20:12
Airport Congonhas–Deputado Freitas Nobre Airport (SBSP)

Arrival

Time 2026-04-20 21:23
Airport Eurico de Aguiar Salles International Airport (SBVT)
Time Latitude Longitude Altitude Speed Heading
2026-04-20 19:48 -23.62422 -46.66029 2601 ft 0 kts 237°
2026-04-20 20:04 -23.62411 -46.66010 2600 ft 4 kts 250°
2026-04-20 20:04 -23.62409 -46.65995 2600 ft 4 kts 297°
2026-04-20 20:04 -23.62422 -46.65974 2600 ft 4 kts 317°
2026-04-20 20:05 -23.62443 -46.65957 2600 ft 3 kts 328°
2026-04-20 20:05 -23.62446 -46.65955 2600 ft 0 kts 327°
2026-04-20 20:08 -23.62440 -46.65957 2600 ft 1 kts 347°
2026-04-20 20:08 -23.62418 -46.65960 2600 ft 5 kts 353°
2026-04-20 20:09 -23.62370 -46.65970 2600 ft 6 kts 344°
2026-04-20 20:09 -23.62321 -46.65994 2600 ft 10 kts 328°
2026-04-20 20:09 -23.62253 -46.66038 2600 ft 12 kts 331°
2026-04-20 20:09 -23.62188 -46.66077 2599 ft 10 kts 331°
2026-04-20 20:10 -23.62136 -46.66112 2597 ft 7 kts 325°
2026-04-20 20:10 -23.62091 -46.66138 2597 ft 8 kts 351°
2026-04-20 20:10 -23.62032 -46.66110 2595 ft 11 kts 45°
2026-04-20 20:10 -23.62041 -46.66080 2596 ft 0 kts 147°
2026-04-20 20:11 -23.62052 -46.66072 2594 ft 7 kts 147°
2026-04-20 20:11 -23.62303 -46.65899 2600 ft 84 kts 148°
2026-04-20 20:11 -23.63019 -46.65413 2663 ft 149 kts 152°
2026-04-20 20:12 -23.63839 -46.64751 3419 ft 149 kts 146°
2026-04-20 20:12 -23.64590 -46.63942 3908 ft 162 kts 123°
2026-04-20 20:12 -23.65182 -46.62800 4226 ft 184 kts 120°
2026-04-20 20:13 -23.66585 -46.60032 4894 ft 233 kts 121°
2026-04-20 20:13 -23.67413 -46.58405 5314 ft 257 kts 120°
2026-04-20 20:13 -23.68297 -46.56671 6020 ft 267 kts 121°
2026-04-20 20:13 -23.69213 -46.54876 6748 ft 274 kts 120°
2026-04-20 20:14 -23.70136 -46.53069 7556 ft 277 kts 120°
2026-04-20 20:14 -23.71072 -46.51205 8393 ft 281 kts 117°
2026-04-20 20:14 -23.71679 -46.49164 9238 ft 287 kts 102°
2026-04-20 20:14 -23.71760 -46.46975 10033 ft 294 kts 86°
2026-04-20 20:15 -23.71448 -46.44721 10503 ft 309 kts 83°
2026-04-20 20:15 -23.71104 -46.42321 10762 ft 329 kts 83°
2026-04-20 20:15 -23.70747 -46.39818 11319 ft 336 kts 84°
2026-04-20 20:15 -23.70389 -46.37288 11991 ft 340 kts 84°
2026-04-20 20:16 -23.70023 -46.34725 12682 ft 342 kts 84°
2026-04-20 20:16 -23.69655 -46.32145 13336 ft 346 kts 84°
2026-04-20 20:16 -23.69286 -46.29543 13997 ft 348 kts 85°
2026-04-20 20:16 -23.68915 -46.26915 14572 ft 352 kts 85°
2026-04-20 20:17 -23.68537 -46.24270 15119 ft 355 kts 85°
2026-04-20 20:17 -23.68155 -46.21623 15648 ft 359 kts 85°
2026-04-20 20:17 -23.67764 -46.18918 16197 ft 363 kts 84°
2026-04-20 20:17 -23.67369 -46.16189 16729 ft 366 kts 85°
2026-04-20 20:18 -23.66883 -46.13435 17249 ft 373 kts 78°
2026-04-20 20:18 -23.65956 -46.10762 17768 ft 382 kts 68°
2026-04-20 20:18 -23.64770 -46.08150 18308 ft 386 kts 67°
2026-04-20 20:18 -23.63575 -46.05521 18778 ft 389 kts 67°
2026-04-20 20:19 -23.62372 -46.02870 19252 ft 392 kts 67°
2026-04-20 20:19 -23.61164 -46.00194 19750 ft 394 kts 66°
2026-04-20 20:19 -23.59949 -45.97498 20249 ft 397 kts 66°
2026-04-20 20:19 -23.58722 -45.94785 20741 ft 400 kts 66°
2026-04-20 20:20 -23.57486 -45.92055 21228 ft 403 kts 66°
2026-04-20 20:20 -23.56241 -45.89311 21717 ft 405 kts 66°
2026-04-20 20:20 -23.54985 -45.86548 22202 ft 408 kts 66°
2026-04-20 20:20 -23.53718 -45.83764 22670 ft 411 kts 65°
2026-04-20 20:21 -23.52444 -45.80966 23140 ft 414 kts 66°
2026-04-20 20:21 -23.51176 -45.78181 23605 ft 417 kts 65°
2026-04-20 20:21 -23.49885 -45.75347 23993 ft 419 kts 65°
2026-04-20 20:21 -23.48588 -45.72495 24372 ft 421 kts 65°
2026-04-20 20:22 -23.47282 -45.69628 24731 ft 424 kts 65°
2026-04-20 20:22 -23.45964 -45.66735 25088 ft 427 kts 65°
2026-04-20 20:22 -23.44638 -45.63828 25439 ft 430 kts 65°
2026-04-20 20:22 -23.43304 -45.60904 25784 ft 432 kts 65°
2026-04-20 20:23 -23.41961 -45.57963 26143 ft 435 kts 65°
2026-04-20 20:23 -23.40608 -45.55007 26491 ft 438 kts 65°
2026-04-20 20:23 -23.39297 -45.51999 26830 ft 439 kts 70°
2026-04-20 20:23 -23.38378 -45.48833 27160 ft 440 kts 79°
2026-04-20 20:24 -23.37696 -45.45578 27497 ft 442 kts 79°
2026-04-20 20:24 -23.37007 -45.42307 27837 ft 445 kts 79°
2026-04-20 20:24 -23.36307 -45.39011 28185 ft 448 kts 78°
2026-04-20 20:24 -23.35601 -45.35703 28533 ft 451 kts 78°
2026-04-20 20:25 -23.34886 -45.32374 28868 ft 453 kts 78°
2026-04-20 20:25 -23.34163 -45.29026 29204 ft 456 kts 78°
2026-04-20 20:25 -23.33436 -45.25656 29535 ft 459 kts 78°
2026-04-20 20:25 -23.32706 -45.22260 29866 ft 462 kts 78°
2026-04-20 20:26 -23.31972 -45.18847 30197 ft 464 kts 78°
2026-04-20 20:26 -23.31234 -45.15421 30457 ft 467 kts 78°
2026-04-20 20:26 -23.30490 -45.11975 30727 ft 468 kts 79°
2026-04-20 20:26 -23.29745 -45.08520 30980 ft 470 kts 79°
2026-04-20 20:27 -23.28998 -45.05055 31221 ft 472 kts 79°
2026-04-20 20:27 -23.28247 -45.01574 31456 ft 473 kts 79°
2026-04-20 20:27 -23.27494 -44.98083 31668 ft 475 kts 79°
2026-04-20 20:27 -23.26749 -44.94632 31975 ft 475 kts 79°
2026-04-20 20:28 -23.25992 -44.91141 32326 ft 474 kts 79°
2026-04-20 20:28 -23.25237 -44.87663 32673 ft 473 kts 80°
2026-04-20 20:28 -23.24482 -44.84188 33019 ft 472 kts 80°
2026-04-20 20:28 -23.23726 -44.80717 33349 ft 471 kts 80°
2026-04-20 20:29 -23.22973 -44.77253 33657 ft 471 kts 80°
2026-04-20 20:29 -23.22219 -44.73786 33985 ft 470 kts 81°
2026-04-20 20:29 -23.21462 -44.70331 34283 ft 470 kts 81°
2026-04-20 20:29 -23.20705 -44.66879 34538 ft 469 kts 81°
2026-04-20 20:30 -23.19949 -44.63430 34786 ft 469 kts 81°
2026-04-20 20:30 -23.19194 -44.59981 35013 ft 469 kts 81°
2026-04-20 20:30 -23.17683 -44.53116 35091 ft 464 kts 81°
2026-04-20 20:31 -23.16185 -44.46325 35095 ft 461 kts 81°
2026-04-20 20:31 -23.14691 -44.39546 35090 ft 461 kts 81°
2026-04-20 20:32 -23.13197 -44.32765 35092 ft 461 kts 81°
2026-04-20 20:32 -23.11701 -44.25979 35084 ft 461 kts 81°
2026-04-20 20:33 -23.10206 -44.19213 35090 ft 461 kts 81°
2026-04-20 20:33 -23.08696 -44.12443 35090 ft 461 kts 81°
2026-04-20 20:34 -23.07194 -44.05723 35080 ft 461 kts 81°
2026-04-20 20:34 -23.05684 -43.98966 35082 ft 460 kts 81°
2026-04-20 20:35 -23.04172 -43.92228 35071 ft 460 kts 81°
2026-04-20 20:35 -23.02656 -43.85477 35062 ft 460 kts 81°
2026-04-20 20:36 -23.01144 -43.78735 35058 ft 459 kts 81°
2026-04-20 20:36 -22.99628 -43.72004 35045 ft 460 kts 79°
2026-04-20 20:37 -22.97294 -43.65478 35047 ft 465 kts 71°
2026-04-20 20:37 -22.94746 -43.59021 35052 ft 465 kts 71°
2026-04-20 20:38 -22.92202 -43.52567 35051 ft 465 kts 71°
2026-04-20 20:38 -22.89658 -43.46118 35038 ft 466 kts 71°
2026-04-20 20:39 -22.87109 -43.39656 35047 ft 466 kts 72°
2026-04-20 20:39 -22.84563 -43.33204 35045 ft 466 kts 72°
2026-04-20 20:40 -22.81996 -43.26795 35016 ft 468 kts 68°
2026-04-20 20:40 -22.78536 -43.20768 35017 ft 472 kts 60°
2026-04-20 20:41 -22.74921 -43.14826 35019 ft 472 kts 61°
2026-04-20 20:41 -22.71310 -43.08879 35075 ft 472 kts 61°
2026-04-20 20:42 -22.67693 -43.02931 35079 ft 473 kts 61°
2026-04-20 20:42 -22.64069 -42.96984 35083 ft 473 kts 61°
2026-04-20 20:43 -22.60447 -42.91041 35083 ft 473 kts 61°
2026-04-20 20:43 -22.56821 -42.85104 35085 ft 473 kts 61°
2026-04-20 20:44 -22.53193 -42.79180 35087 ft 473 kts 61°
2026-04-20 20:44 -22.49559 -42.73244 35083 ft 473 kts 61°
2026-04-20 20:45 -22.45925 -42.67315 35078 ft 472 kts 60°
2026-04-20 20:45 -22.42315 -42.61427 35079 ft 473 kts 60°
2026-04-20 20:46 -22.38664 -42.55472 35084 ft 472 kts 61°
2026-04-20 20:46 -22.35056 -42.49593 35078 ft 472 kts 61°
2026-04-20 20:47 -22.31419 -42.43678 35072 ft 473 kts 60°
2026-04-20 20:47 -22.27715 -42.37806 35073 ft 474 kts 58°
2026-04-20 20:48 -22.23719 -42.32125 35065 ft 476 kts 56°
2026-04-20 20:48 -22.19629 -42.26519 35051 ft 475 kts 56°
2026-04-20 20:49 -22.16270 -42.21824 35055 ft 475 kts 57°
2026-04-20 20:49 -22.11634 -42.15229 35060 ft 475 kts 57°
2026-04-20 20:50 -22.07647 -42.09551 35041 ft 474 kts 57°
2026-04-20 20:50 -22.03653 -42.03891 35043 ft 475 kts 56°
2026-04-20 20:51 -22.00293 -41.99145 35037 ft 475 kts 57°
2026-04-20 20:51 -21.96315 -41.93524 35047 ft 474 kts 56°
2026-04-20 20:52 -21.92312 -41.87877 35037 ft 474 kts 56°
2026-04-20 20:52 -21.88305 -41.82236 35041 ft 473 kts 56°
2026-04-20 20:53 -21.84300 -41.76600 35046 ft 474 kts 56°
2026-04-20 20:53 -21.80294 -41.70962 35037 ft 474 kts 56°
2026-04-20 20:54 -21.76284 -41.65328 35030 ft 474 kts 56°
2026-04-20 20:54 -21.72271 -41.59698 35027 ft 474 kts 56°
2026-04-20 20:55 -21.68261 -41.54067 35023 ft 474 kts 56°
2026-04-20 20:55 -21.64238 -41.48438 35023 ft 475 kts 56°
2026-04-20 20:56 -21.60205 -41.42808 35021 ft 475 kts 56°
2026-04-20 20:56 -21.56178 -41.37181 34689 ft 477 kts 55°
2026-04-20 20:57 -21.54148 -41.34342 34172 ft 480 kts 55°
2026-04-20 20:57 -21.52108 -41.31485 33599 ft 483 kts 55°
2026-04-20 20:57 -21.50012 -41.28652 33087 ft 485 kts 51°
2026-04-20 20:57 -21.47570 -41.26132 32590 ft 488 kts 41°
2026-04-20 20:58 -21.44947 -41.23828 32268 ft 484 kts 41°
2026-04-20 20:58 -21.42339 -41.21537 31684 ft 484 kts 42°
2026-04-20 20:58 -21.39757 -41.19267 31369 ft 476 kts 42°
2026-04-20 20:58 -21.37207 -41.17018 30873 ft 473 kts 42°
2026-04-20 20:59 -21.34672 -41.14779 30420 ft 469 kts 42°
2026-04-20 20:59 -21.32195 -41.12586 29971 ft 465 kts 43°
2026-04-20 20:59 -21.29714 -41.10390 29437 ft 461 kts 42°
2026-04-20 20:59 -21.27254 -41.08220 28897 ft 457 kts 42°
2026-04-20 21:00 -21.24801 -41.06062 28441 ft 452 kts 42°
2026-04-20 21:00 -21.22387 -41.03946 28010 ft 446 kts 42°
2026-04-20 21:00 -21.20001 -41.01855 27605 ft 440 kts 42°
2026-04-20 21:00 -21.17651 -40.99795 27196 ft 434 kts 42°
2026-04-20 21:01 -21.15325 -40.97753 26803 ft 430 kts 41°
2026-04-20 21:01 -21.13023 -40.95731 26410 ft 426 kts 41°
2026-04-20 21:01 -21.10740 -40.93726 26015 ft 422 kts 41°
2026-04-20 21:01 -21.08475 -40.91738 25611 ft 420 kts 41°
2026-04-20 21:02 -21.06224 -40.89763 25190 ft 417 kts 41°
2026-04-20 21:02 -21.03985 -40.87798 24779 ft 415 kts 41°
2026-04-20 21:02 -21.01760 -40.85846 24357 ft 413 kts 41°
2026-04-20 21:02 -20.99545 -40.83906 23932 ft 411 kts 41°
2026-04-20 21:03 -20.97335 -40.81973 23471 ft 409 kts 40°
2026-04-20 21:03 -20.95143 -40.80057 23021 ft 405 kts 40°
2026-04-20 21:03 -20.92976 -40.78159 22589 ft 400 kts 40°
2026-04-20 21:03 -20.90829 -40.76283 22159 ft 396 kts 40°
2026-04-20 21:04 -20.88707 -40.74429 21736 ft 392 kts 40°
2026-04-20 21:04 -20.86610 -40.72595 21313 ft 387 kts 40°
2026-04-20 21:04 -20.84531 -40.70780 20892 ft 383 kts 40°
2026-04-20 21:04 -20.82475 -40.68987 20474 ft 380 kts 40°
2026-04-20 21:05 -20.80316 -40.67388 20056 ft 376 kts 28°
2026-04-20 21:05 -20.77943 -40.66243 19645 ft 373 kts 22°
2026-04-20 21:05 -20.75552 -40.65199 19229 ft 369 kts 22°
2026-04-20 21:05 -20.73187 -40.64161 18813 ft 366 kts 22°
2026-04-20 21:06 -20.70836 -40.63125 18410 ft 364 kts 22°
2026-04-20 21:06 -20.68494 -40.62090 17955 ft 365 kts 22°
2026-04-20 21:06 -20.66156 -40.61055 17534 ft 362 kts 22°
2026-04-20 21:06 -20.63834 -40.60028 17134 ft 360 kts 22°
2026-04-20 21:07 -20.61536 -40.59015 16739 ft 356 kts 22°
2026-04-20 21:07 -20.59279 -40.58021 16344 ft 353 kts 22°
2026-04-20 21:07 -20.57021 -40.57026 15945 ft 350 kts 21°
2026-04-20 21:07 -20.54779 -40.56039 15539 ft 347 kts 21°
2026-04-20 21:08 -20.52550 -40.55062 15153 ft 345 kts 22°
2026-04-20 21:08 -20.50337 -40.54093 14764 ft 343 kts 21°
2026-04-20 21:08 -20.48137 -40.53127 14373 ft 341 kts 21°
2026-04-20 21:08 -20.45953 -40.52168 13988 ft 339 kts 21°
2026-04-20 21:09 -20.43775 -40.51210 13573 ft 338 kts 21°
2026-04-20 21:09 -20.41613 -40.50260 13184 ft 335 kts 21°
2026-04-20 21:09 -20.39469 -40.49318 12803 ft 332 kts 21°
2026-04-20 21:09 -20.37337 -40.48382 12415 ft 329 kts 20°
2026-04-20 21:10 -20.35212 -40.47502 12033 ft 325 kts 14°
2026-04-20 21:10 -20.33025 -40.46933 11608 ft 323 kts 10°
2026-04-20 21:10 -20.30838 -40.46391 11263 ft 320 kts 11°
2026-04-20 21:10 -20.28707 -40.45860 10979 ft 313 kts 11°
2026-04-20 21:11 -20.26587 -40.45332 10563 ft 311 kts 10°
2026-04-20 21:11 -20.24482 -40.44804 10164 ft 310 kts 10°
2026-04-20 21:11 -20.22416 -40.44286 9762 ft 307 kts 10°
2026-04-20 21:11 -20.20342 -40.43768 9329 ft 305 kts 10°
2026-04-20 21:12 -20.18280 -40.43253 8903 ft 303 kts 11°
2026-04-20 21:12 -20.16235 -40.42745 8492 ft 301 kts 11°
2026-04-20 21:12 -20.14205 -40.42242 8075 ft 299 kts 11°
2026-04-20 21:12 -20.12205 -40.41665 7649 ft 298 kts 20°
2026-04-20 21:13 -20.10435 -40.40538 7249 ft 297 kts 40°
2026-04-20 21:13 -20.09087 -40.38856 6824 ft 295 kts 59°
2026-04-20 21:13 -20.08310 -40.36888 6407 ft 291 kts 73°
2026-04-20 21:13 -20.07710 -40.34851 5997 ft 287 kts 73°
2026-04-20 21:14 -20.07111 -40.32867 5846 ft 273 kts 72°
2026-04-20 21:14 -20.06540 -40.30992 5705 ft 260 kts 73°
2026-04-20 21:14 -20.05998 -40.29211 5587 ft 246 kts 73°
2026-04-20 21:14 -20.05485 -40.27528 5485 ft 233 kts 73°
2026-04-20 21:15 -20.04999 -40.25932 5376 ft 221 kts 73°
2026-04-20 21:15 -20.04539 -40.24421 5277 ft 211 kts 74°
2026-04-20 21:15 -20.04215 -40.22909 5085 ft 209 kts 89°
2026-04-20 21:15 -20.04315 -40.21389 4820 ft 204 kts 104°
2026-04-20 21:16 -20.04788 -40.19988 4552 ft 199 kts 121°
2026-04-20 21:16 -20.05575 -40.18800 4306 ft 195 kts 135°
2026-04-20 21:16 -20.06607 -40.17889 4066 ft 192 kts 150°
2026-04-20 21:16 -20.07807 -40.17298 3831 ft 189 kts 164°
2026-04-20 21:17 -20.09090 -40.17057 3599 ft 187 kts 178°
2026-04-20 21:17 -20.10375 -40.17174 3368 ft 185 kts 191°
2026-04-20 21:17 -20.11582 -40.17624 3129 ft 184 kts 205°
2026-04-20 21:17 -20.12646 -40.18371 3035 ft 184 kts 218°
2026-04-20 21:18 -20.13473 -40.19331 2974 ft 170 kts 230°
2026-04-20 21:18 -20.14051 -40.20378 2849 ft 159 kts 237°
2026-04-20 21:18 -20.14570 -40.21371 2644 ft 148 kts 236°
2026-04-20 21:18 -20.15059 -40.22303 2451 ft 142 kts 236°
2026-04-20 21:19 -20.15538 -40.23211 2280 ft 141 kts 235°
2026-04-20 21:19 -20.16020 -40.24122 2101 ft 141 kts 235°
2026-04-20 21:19 -20.16500 -40.25027 1939 ft 140 kts 235°
2026-04-20 21:20 -20.17438 -40.26764 1588 ft 135 kts 232°
2026-04-20 21:20 -20.18059 -40.27505 1420 ft 133 kts 220°
2026-04-20 21:20 -20.18807 -40.28075 1247 ft 131 kts 208°
2026-04-20 21:20 -20.19648 -40.28455 1071 ft 131 kts 196°
2026-04-20 21:21 -20.20540 -40.28630 907 ft 130 kts 184°
2026-04-20 21:21 -20.21446 -40.28597 719 ft 130 kts 171°
2026-04-20 21:21 -20.22332 -40.28460 556 ft 128 kts 172°
2026-04-20 21:21 -20.23220 -40.28332 383 ft 130 kts 172°
2026-04-20 21:22 -20.24113 -40.28203 200 ft 129 kts 173°
2026-04-20 21:22 -20.24994 -40.28081 27 ft 125 kts 172°
2026-04-20 21:22 -20.25691 -40.27982 22 ft 64 kts 172°
2026-04-20 21:22 -20.26090 -40.27924 19 ft 61 kts 172°
2026-04-20 21:23 -20.26445 -40.27874 19 ft 41 kts 175°
2026-04-20 21:23 -20.26637 -40.27914 19 ft 17 kts 202°
2026-04-20 21:23 -20.26707 -40.27959 19 ft 9 kts 244°
2026-04-20 21:23 -20.26689 -40.28009 18 ft 9 kts 349°
2026-04-20 21:24 -20.26668 -40.28013 21 ft 3 kts 350°
2026-04-20 21:24 -20.26642 -40.28018 18 ft 5 kts 350°
2026-04-20 21:24 -20.26605 -40.28025 18 ft 4 kts 350°
2026-04-20 21:24 -20.26573 -40.28030 18 ft 5 kts 350°
2026-04-20 21:25 -20.26530 -40.28037 20 ft 7 kts 355°
2026-04-20 21:25 -20.26487 -40.28041 18 ft 6 kts 355°
2026-04-20 21:25 -20.26461 -40.28044 18 ft 0 kts 353°
2026-04-20 21:25 -20.26454 -40.28044 18 ft 2 kts 353°
2026-04-20 21:26 -20.26445 -40.28063 18 ft 4 kts 271°
2026-04-20 21:26 -20.26450 -40.28100 18 ft 5 kts 262°
2026-04-20 21:26 -20.26455 -40.28141 18 ft 5 kts 262°
2026-04-20 21:26 -20.26458 -40.28169 18 ft 4 kts 264°
2026-04-20 21:27 -20.26459 -40.28179 18 ft 1 kts 264°
2026-04-20 21:27 -20.26459 -40.28182 18 ft 0 kts 264°